Other Public Products
Issued by NWS Grand Forks, ND

Home | Current Version | Previous Version | Graphics & Text | Print | Product List | Glossary On
Versions: 1 2 3 4 5 6 7 8 9 10 11 12 13 14 15 16 17 18 19 20 21 22 23 24 25 26 27 28 29 30 31 32 33 34 35 36 37 38 39 40 41 42 43 44 45 46 47 48 49 50
000
FPUS83 KFGF 230831
OPUFGF
NATIONAL WEATHER SERVICE EASTERN NORTH DAKOTA/GRAND FORKS ND
300 AM CDT SAT MAY 23 2015

 **SATELLITE DATA USED TO AUGMENT SKY COVER AT AUTOMATED STATIONS**
 *****  WEATHER ACROSS EASTERN NORTH DAKOTA  *****

CITY           SKY/WX    TMP DP  RH WIND       PRES   REMARKS
GRAND FORKS    CLEAR     51  41  68 SE6       30.13R
GRAND FORKS AF CLEAR     49  40  73 SW5       30.13S
GRAND CITY NWS   N/A     48 N/A N/A S2          N/A
BUXTON           N/A     57  42  57 S5          N/A
DEVILS LAKE    CLEAR     55  39  54 CALM      30.12S
FARGO          CLEAR     54  40  59 S8        30.15R
WAHPETON ARPT  SUNNY     52  39  62 W7        30.18R
$$

 *****  WEATHER ACROSS CENTRAL AND WESTERN NORTH DAKOTA  *****

CITY           SKY/WX    TMP DP  RH WIND       PRES   REMARKS
JAMESTOWN      PTCLDY    53  42  66 SW9       30.13R
BISMARCK       CLEAR     46  40  79 SE5       30.15R
MINOT          CLOUDY    59  39  47 SW9       30.10S
MINOT AFB      CLOUDY    56  43  62 SW7       30.09S
GARRISON         N/A     49  39  68 CALM      30.12S
WILLISTON      PTCLDY    50  38  63 SW3       30.10R
DICKINSON      CLEAR     42  36  79 S7        30.08F
HETTINGER      PTCLDY    43  39  86 E6        30.10S
$$

 *****  OTHER OBSERVATIONS NORTHEAST NORTH DAKOTA  *****

CITY           SKY/WX    TMP DP  RH WIND       PRES   REMARKS
WALHALLA       FAIR      57  34  41 S7        30.11S
LANGDON        FAIR      46  36  66 S10       30.13S
CAVALIER       FAIR      50  43  76 SW5       30.12R
GRAFTON        FAIR      50  45  81 SW3       30.12F
CANDO          FAIR      46  39  76 SW3       30.13S
FORT TOTTEN      N/A     55  32  42 SE6       29.95S
ROLLA          FAIR      48  36  61 SW6       30.14S
RUGBY          NOT AVBL
 ***** THE ABOVE OBSERVATIONS ARE NON NWS ARE NOT QUALITY
        CONTROLLED AND MAY MIS-REPORT RAIN FOR SNOW...
$$

 *****  OTHER OBSERVATIONS SOUTHEAST NORTH DAKOTA *****

CITY           SKY/WX    TMP DP  RH WIND       PRES   REMARKS
COOPERSTOWN    NOT AVBL
VALLEY CITY    FAIR      46  45  93 SW10      30.14S
OAKES            N/A     48  48 100 S7        30.18R
GWINNER        NOT AVBL
SHEYENNE NWR     N/A     53  45  75 SW7       29.95S
BUFFALO        NOT AVBL
WYNDMERE         N/A     54  45  71 SW8         N/A
 ***** THE ABOVE OBSERVATIONS ARE NON NWS ARE NOT QUALITY
       CONTROLLED AND MAY MIS-REPORT RAIN FOR SNOW...
$$

  *****  WEATHER ACROSS NORTHERN MINNESOTA  *****

CITY           SKY/WX    TMP DP  RH WIND       PRES   REMARKS
FLAG ISLAND    PTCLDY    61  41  48 SW16      30.08S
WARROAD        PTCLDY    57  43  58 SW7       30.13S
ROSEAU         PTCLDY    55  43  62 SW3       30.13R
HALLOCK        CLEAR     52  43  71 S5        30.12S
THF RVR FALLS  CLEAR     55  37  50 S6        30.15S
HALSTAD          N/A     51  39  65 S10         N/A
FOSSTON        CLEAR     45  39  81 CALM      30.17S
BAUDETTE       PTCLDY    56  39  53 SW3       30.12R
WASKISH        CLEAR     55  43  62 CALM      30.16R
CROOKSTON      CLEAR     50  39  66 SE8       30.15S
$$
  *****  WEATHER ACROSS CENTRAL AND WEST MINNESOTA  *****

CITY           SKY/WX    TMP DP  RH WIND       PRES   REMARKS
BEMIDJI        CLEAR     45  39  79 CALM      30.17S
PARK RAPIDS    CLEAR     48  39  71 CALM      30.18S
WADENA         CLEAR     52  39  62 S5        30.19R
DETROIT LAKES  CLEAR     50  43  76 CALM      30.19S
MOORHEAD       CLEAR     54  43  66 S7        30.17S
FERGUS FALLS   CLEAR     52  41  66 W6        30.20R
ELBOW LAKE     FAIR      48  43  81 SW6       30.19S
MORRIS MN      CLEAR     50  43  76 CALM      30.20R
STAPLES        CLEAR     43  39  87 CALM      30.20R
WHEATON        CLEAR     45  39  81 CALM      30.21R
$$
  *****  WEATHER ELSEWHERE ACROSS MINNESOTA  *****

CITY           SKY/WX    TMP DP  RH WIND       PRES   REMARKS
DULUTH         CLEAR     56  35  45 W10       30.19R
INTRNTL FALLS  CLEAR     48  38  68 SW6       30.13R
ELY            CLEAR     54  37  54 SW5       30.16R
CLOQUET        CLEAR     55  34  44 SW7       30.20R
BRAINERD       CLEAR     44  40  85 CALM      30.20R
HIBBING        CLEAR     38  35  89 CALM      30.17S
ALEXANDRIA     CLEAR     52  42  69 SW9       30.21R
SAINT CLOUD    CLEAR     45  42  89 SW3       30.21R
MINNEAPOLIS    CLEAR     57  38  48 CALM      30.21R
$$

  *****  WEATHER ACROSS SOUTH DAKOTA  *****

CITY           SKY/WX    TMP DP  RH WIND       PRES   REMARKS
SIOUX FALLS    CLOUDY    58  43  57 SE8       30.19F
BROOKINGS      CLOUDY    52  45  76 CALM      30.22S
WATERTOWN      PTCLDY    49  41  74 SW5       30.20S
HURON          MOCLDY    49  46  90 SE5       30.19S
SISSETON         N/A     56  40  55 W17G23    30.16S
ABERDEEN       CLEAR     43  40  89 SE6       30.19S
MITCHELL       CLOUDY    54  47  77 S7        30.20R
PIERRE         CLOUDY    50  43  77 SE8       30.12F
MOBRIDGE       PTCLDY    48  45  89 E3        30.12S
RAPID CITY     CLOUDY    47  44  90 SE5       30.05F
$$

  *****  SOME WEATHER IN NEARBY STATES *****

CITY           SKY/WX    TMP DP  RH WIND       PRES   REMARKS
GLASGOW MT     MOCLDY    57  42  57 E10       30.02R
GREAT FALLS MT PTCLDY    54  43  66 E10       29.98S
CHEYENNE WY    CLOUDY    43  42  97 S7        30.04F
SCOTTSBLUFF NE CLOUDY    46  45  96 E10       30.06F FOG
OMAHA NE       CLOUDY    59  50  72 SE7       30.20R
DES MOINES IA  MOCLDY    57  49  74 S7        30.23R
DAVENPORT IA   CLOUDY    58  44  60 E8        30.24S
CHICAGO IL     MOCLDY    51  34  52 SE5       30.29R
EAU CLAIRE WI  CLEAR     43  38  82 CALM      30.23R
LA CROSSE WI   CLEAR     51  44  77 SE6       30.23S
$$

  *****  SOME NATIONAL WEATHER *****

CITY           SKY/WX    TMP DP  RH WIND       PRES   REMARKS
LA GUARDIA NY  CLEAR     53  26  35 NW14      30.27R
RALEIGH NC     PTCLDY    52  48  86 CALM      30.31R
ATLANTA GA     CLEAR     63  52  67 E5        30.26S
NEW ORLEANS LA PTCLDY    74  67  78 VRB3      30.14F
OKLAHOMA CITY  LGT RAIN  58  56  93 SE8       30.11F
ALBUQUERQUE NM PTCLDY    59  27  29 W9        29.98S
SALT LAKE CITY LGT RAIN  54  44  69 SE13      29.91R
LOS ANGELES CA PTCLDY    59  54  83 W10       30.06F
BOISE ID       PTCLDY    58  50  75 NW5       29.87R
SEATTLE WA     MOCLDY    54  48  80 S8        30.10R
$$

*** WEATHER ACROSS MANITOBA...SASKATCHEWAN AND ONTARIO ***
                ***ONTARIO***

CITY           SKY/WX    TMP DP  RH WIND       PRES   REMARKS
GERALDTON      CLOUDY    45  27  49 S9        30.04F
THUNDER BAY    CLEAR     36  30  80 NW3       30.09F
SIOUX LOOKOUT  PTCLDY    61  39  44 W6        30.02S
TORONTO        CLEAR     39  27  60 W6        30.35R
BIG TROUT LK   MOCLDY    46  34  61 NW7       29.88R
PICKLE LAKE    NOT AVBL
DRYDEN         MOCLDY    59  41  51 W12       30.05S
KENORA         PTCLDY    59  39  47 SW12      30.08R
$$
                *** MANITOBA***

CITY           SKY/WX    TMP DP  RH WIND       PRES   REMARKS
BRANDON        CLEAR     48  37  66 W6        30.10R
DAUPHIN        CLEAR     61  34  36 SW12      30.04R
ISLAND LAKE    PTCLDY    52  39  62 N10G18    29.98R
PILOT MOUND      N/A     46  36  66 S6          N/A
THE PAS        PTCLDY    52  37  58 VRB2      29.95R
THOMPSON       MOCLDY    41  36  81 NE8       30.09R
WINNIPEG       MOCLDY    63  37  39 SW13      30.08R
LYNN LAKE      CLEAR     41  34  75 NE8       30.14R
CHURCHILL      MOCLDY    32  28  86 N14       30.15R WCI  22
GILLAM         CLOUDY    34  30  86 NE13G22   30.11R WCI  25
$$
                ***SASKATCHEWAN***

CITY           SKY/WX    TMP DP  RH WIND       PRES   REMARKS
ESTEVAN        PTCLDY    54  41  62 S7        30.10R
KINDERSLEY     CLEAR     55  28  35 SE12      30.06R
LLOYDMINSTER   CLEAR     54  25  32 S8        30.05R
PRINCE ALBERT  PTCLDY    48  39  71 CALM      30.02R
REGINA         PTCLDY    52  37  58 E6        30.08S


USA.gov is the U.S. government's official web portal to all federal, state and local government web resources and services.